RAM265 GMMN-FZAA

Flight info

Callsign RAM265
Flight time 6h 8m
Altitude 37000
Route FOBAC UR722 MAK UM372 BULIS UR981 NY UT365 BOVDA UL684 ABC UW225 AKLIS UA604 BZ DCT BELGU BELGU1A
Aircraft B38M/M-SDE2E3FGHIRWXY/LB1

Departure

Time 2026-04-13 00:21
Airport Mohammed V International Airport (GMMN)

Arrival

Time 2026-04-13 06:30
Airport Ndjili International Airport (FZAA)
Time Latitude Longitude Altitude Speed Heading
2026-04-12 23:46 33.37357 -7.58427 652 ft 0 kts 119°
2026-04-12 23:47 33.37354 -7.58421 652 ft 0 kts 120°
2026-04-13 00:14 33.37334 -7.58371 652 ft 13 kts 118°
2026-04-13 00:14 33.37256 -7.58321 655 ft 13 kts 166°
2026-04-13 00:14 33.37170 -7.58295 653 ft 13 kts 166°
2026-04-13 00:14 33.37088 -7.58266 652 ft 12 kts 165°
2026-04-13 00:15 33.37006 -7.58239 652 ft 13 kts 163°
2026-04-13 00:15 33.36939 -7.58269 652 ft 9 kts 244°
2026-04-13 00:15 33.36921 -7.58340 653 ft 9 kts 259°
2026-04-13 00:15 33.36903 -7.58416 652 ft 11 kts 248°
2026-04-13 00:16 33.36838 -7.58459 655 ft 11 kts 189°
2026-04-13 00:16 33.36765 -7.58435 652 ft 11 kts 160°
2026-04-13 00:16 33.36669 -7.58400 652 ft 16 kts 164°
2026-04-13 00:16 33.36563 -7.58365 652 ft 15 kts 164°
2026-04-13 00:17 33.36462 -7.58330 652 ft 15 kts 164°
2026-04-13 00:17 33.36365 -7.58297 651 ft 14 kts 164°
2026-04-13 00:17 33.36261 -7.58262 651 ft 17 kts 164°
2026-04-13 00:17 33.36153 -7.58225 653 ft 16 kts 164°
2026-04-13 00:18 33.36049 -7.58189 651 ft 15 kts 163°
2026-04-13 00:18 33.35949 -7.58154 652 ft 15 kts 163°
2026-04-13 00:18 33.35853 -7.58121 651 ft 14 kts 163°
2026-04-13 00:18 33.35763 -7.58090 651 ft 13 kts 165°
2026-04-13 00:19 33.35675 -7.58061 652 ft 13 kts 165°
2026-04-13 00:19 33.35591 -7.58031 651 ft 13 kts 163°
2026-04-13 00:19 33.35493 -7.57996 653 ft 15 kts 164°
2026-04-13 00:19 33.35394 -7.57962 652 ft 14 kts 164°
2026-04-13 00:20 33.35298 -7.57951 652 ft 14 kts 196°
2026-04-13 00:20 33.35245 -7.58036 652 ft 13 kts 256°
2026-04-13 00:20 33.35223 -7.58141 653 ft 13 kts 255°
2026-04-13 00:20 33.35229 -7.58239 655 ft 13 kts 308°
2026-04-13 00:21 33.35322 -7.58295 653 ft 28 kts 343°
2026-04-13 00:21 33.35787 -7.58455 645 ft 108 kts 344°
2026-04-13 00:21 33.36370 -7.58656 649 ft 153 kts 344°
2026-04-13 00:21 33.37945 -7.59172 1370 ft 179 kts 345°
2026-04-13 00:22 33.39150 -7.59625 2323 ft 190 kts 330°
2026-04-13 00:22 33.39830 -7.60282 2911 ft 190 kts 313°
2026-04-13 00:22 33.40559 -7.61574 3904 ft 186 kts 298°
2026-04-13 00:22 33.41072 -7.63050 4435 ft 198 kts 287°
2026-04-13 00:23 33.41278 -7.64715 4883 ft 209 kts 273°
2026-04-13 00:23 33.40992 -7.66466 5291 ft 223 kts 246°
2026-04-13 00:23 33.40256 -7.68169 5619 ft 239 kts 242°
2026-04-13 00:23 33.39455 -7.69985 5982 ft 252 kts 248°
2026-04-13 00:24 33.38736 -7.71909 6593 ft 257 kts 250°
2026-04-13 00:24 33.38047 -7.73891 7260 ft 259 kts 251°
2026-04-13 00:24 33.37378 -7.75900 7909 ft 261 kts 252°
2026-04-13 00:24 33.36712 -7.77937 8562 ft 264 kts 252°
2026-04-13 00:25 33.36043 -7.79996 9220 ft 266 kts 253°
2026-04-13 00:25 33.35369 -7.82076 9868 ft 269 kts 253°
2026-04-13 00:25 33.34484 -7.84081 10429 ft 281 kts 231°
2026-04-13 00:25 33.33020 -7.85688 10692 ft 301 kts 223°
2026-04-13 00:26 33.31341 -7.87337 10857 ft 322 kts 222°
2026-04-13 00:26 33.29544 -7.89084 11016 ft 343 kts 221°
2026-04-13 00:26 33.27643 -7.90942 11169 ft 362 kts 221°
2026-04-13 00:26 33.25643 -7.92912 11308 ft 381 kts 222°
2026-04-13 00:27 33.23553 -7.94982 11446 ft 399 kts 222°
2026-04-13 00:27 33.21385 -7.97133 11706 ft 410 kts 222°
2026-04-13 00:27 33.19176 -7.99325 12209 ft 414 kts 222°
2026-04-13 00:27 33.16950 -8.01530 12785 ft 416 kts 222°
2026-04-13 00:28 33.14713 -8.03687 13314 ft 421 kts 217°
2026-04-13 00:28 33.12045 -8.05200 13796 ft 430 kts 197°
2026-04-13 00:28 33.09068 -8.05673 14323 ft 434 kts 183°
2026-04-13 00:28 33.06040 -8.05808 14791 ft 437 kts 182°
2026-04-13 00:29 33.02971 -8.05930 15241 ft 441 kts 182°
2026-04-13 00:29 32.99891 -8.06086 15697 ft 444 kts 183°
2026-04-13 00:29 32.96790 -8.06274 16180 ft 446 kts 183°
2026-04-13 00:29 32.93679 -8.06470 16631 ft 450 kts 184°
2026-04-13 00:30 32.90552 -8.06804 17062 ft 452 kts 187°
2026-04-13 00:30 32.87463 -8.07314 17497 ft 455 kts 189°
2026-04-13 00:30 32.84325 -8.07887 17918 ft 458 kts 189°
2026-04-13 00:30 32.81119 -8.08470 18332 ft 461 kts 189°
2026-04-13 00:31 32.77968 -8.09014 18712 ft 464 kts 188°
2026-04-13 00:31 32.74755 -8.09544 19071 ft 467 kts 188°
2026-04-13 00:31 32.71516 -8.10061 19428 ft 470 kts 188°
2026-04-13 00:31 32.68265 -8.10588 19784 ft 473 kts 188°
2026-04-13 00:32 32.64992 -8.11124 20138 ft 476 kts 188°
2026-04-13 00:32 32.61701 -8.11664 20492 ft 479 kts 188°
2026-04-13 00:32 32.58389 -8.12208 20833 ft 481 kts 188°
2026-04-13 00:32 32.55062 -8.12753 21167 ft 484 kts 188°
2026-04-13 00:33 32.51724 -8.13300 21490 ft 487 kts 188°
2026-04-13 00:33 32.48393 -8.13832 21800 ft 489 kts 188°
2026-04-13 00:33 32.45011 -8.14385 22123 ft 491 kts 188°
2026-04-13 00:33 32.41609 -8.14944 22434 ft 494 kts 188°
2026-04-13 00:34 32.38201 -8.15504 22737 ft 496 kts 188°
2026-04-13 00:34 32.34764 -8.16066 23040 ft 498 kts 188°
2026-04-13 00:34 32.31315 -8.16617 23330 ft 500 kts 188°
2026-04-13 00:34 32.27848 -8.17183 23610 ft 503 kts 188°
2026-04-13 00:35 32.24378 -8.17755 23883 ft 505 kts 188°
2026-04-13 00:35 32.20888 -8.18325 24116 ft 507 kts 188°
2026-04-13 00:35 32.17431 -8.18885 24352 ft 508 kts 188°
2026-04-13 00:35 32.13907 -8.19371 24581 ft 510 kts 184°
2026-04-13 00:36 32.10355 -8.19410 24789 ft 513 kts 175°
2026-04-13 00:36 32.06804 -8.18867 25028 ft 513 kts 170°
2026-04-13 00:36 32.03275 -8.18166 25274 ft 515 kts 169°
2026-04-13 00:36 31.99741 -8.17444 25511 ft 516 kts 169°
2026-04-13 00:37 31.92658 -8.16053 26173 ft 514 kts 170°
2026-04-13 00:37 31.89123 -8.15392 26503 ft 513 kts 170°
2026-04-13 00:37 31.85643 -8.14753 26810 ft 512 kts 170°
2026-04-13 00:38 31.82124 -8.14111 27115 ft 512 kts 170°
2026-04-13 00:38 31.78606 -8.13469 27425 ft 512 kts 170°
2026-04-13 00:38 31.75091 -8.12826 27741 ft 511 kts 170°
2026-04-13 00:38 31.71579 -8.12182 28074 ft 510 kts 170°
2026-04-13 00:39 31.68064 -8.11538 28403 ft 509 kts 170°
2026-04-13 00:39 31.64552 -8.10926 28719 ft 509 kts 174°
2026-04-13 00:39 31.61018 -8.10765 29017 ft 509 kts 182°
2026-04-13 00:39 31.57509 -8.11172 29335 ft 508 kts 192°
2026-04-13 00:40 31.54053 -8.12090 29677 ft 506 kts 194°
2026-04-13 00:40 31.50636 -8.13071 29980 ft 506 kts 195°
2026-04-13 00:40 31.47211 -8.14061 30264 ft 506 kts 195°
2026-04-13 00:40 31.43790 -8.15036 30523 ft 506 kts 194°
2026-04-13 00:41 31.40365 -8.15995 30791 ft 505 kts 194°
2026-04-13 00:41 31.36951 -8.16935 31053 ft 504 kts 194°
2026-04-13 00:41 31.33536 -8.17867 31292 ft 504 kts 194°
2026-04-13 00:41 31.30110 -8.18792 31529 ft 504 kts 194°
2026-04-13 00:42 31.26697 -8.19708 31769 ft 503 kts 194°
2026-04-13 00:42 31.23326 -8.20617 32009 ft 503 kts 194°
2026-04-13 00:42 31.19923 -8.21538 32247 ft 502 kts 194°
2026-04-13 00:42 31.16519 -8.22460 32493 ft 502 kts 194°
2026-04-13 00:43 31.13113 -8.23383 32730 ft 501 kts 194°
2026-04-13 00:43 31.09708 -8.24305 32959 ft 500 kts 194°
2026-04-13 00:43 31.06310 -8.25224 33175 ft 500 kts 194°
2026-04-13 00:43 31.02925 -8.26139 33405 ft 500 kts 194°
2026-04-13 00:44 30.99537 -8.27054 33606 ft 499 kts 194°
2026-04-13 00:44 30.92805 -8.28872 33923 ft 499 kts 194°
2026-04-13 00:44 30.89417 -8.29785 34092 ft 499 kts 194°
2026-04-13 00:45 30.86040 -8.30694 34324 ft 497 kts 194°
2026-04-13 00:45 30.82678 -8.31598 34583 ft 494 kts 194°
2026-04-13 00:45 30.79341 -8.32495 34845 ft 491 kts 194°
2026-04-13 00:45 30.76022 -8.33387 35054 ft 489 kts 195°
2026-04-13 00:46 30.72701 -8.34279 35056 ft 490 kts 195°
2026-04-13 00:46 30.66053 -8.36064 35069 ft 490 kts 195°
2026-04-13 00:47 30.59419 -8.37842 35067 ft 488 kts 195°
2026-04-13 00:47 30.52846 -8.39599 35070 ft 487 kts 195°
2026-04-13 00:48 30.46257 -8.41357 35063 ft 485 kts 194°
2026-04-13 00:48 30.39679 -8.43113 35063 ft 484 kts 195°
2026-04-13 00:49 30.33126 -8.44868 35060 ft 483 kts 195°
2026-04-13 00:49 30.26590 -8.46614 35054 ft 482 kts 195°
2026-04-13 00:50 30.20045 -8.48374 35066 ft 481 kts 195°
2026-04-13 00:50 30.13527 -8.50115 35056 ft 480 kts 195°
2026-04-13 00:51 30.07045 -8.51838 35055 ft 480 kts 195°
2026-04-13 00:51 30.00529 -8.53568 35052 ft 480 kts 195°
2026-04-13 00:52 29.94018 -8.55295 35042 ft 480 kts 195°
2026-04-13 00:52 29.87510 -8.57020 35048 ft 480 kts 195°
2026-04-13 00:53 29.81038 -8.58733 35038 ft 480 kts 195°
2026-04-13 00:53 29.74529 -8.60452 35028 ft 480 kts 195°
2026-04-13 00:54 29.68000 -8.62175 35022 ft 480 kts 195°
2026-04-13 00:54 29.61481 -8.63894 35008 ft 481 kts 195°
2026-04-13 00:55 29.54958 -8.65611 34998 ft 481 kts 195°
2026-04-13 00:55 29.48437 -8.67319 34992 ft 480 kts 195°
2026-04-13 00:56 29.42047 -8.69002 34986 ft 480 kts 195°
2026-04-13 00:56 29.35538 -8.70714 34979 ft 480 kts 195°
2026-04-13 00:57 29.29021 -8.72417 34968 ft 479 kts 195°
2026-04-13 00:57 29.22519 -8.74109 34965 ft 479 kts 195°
2026-04-13 00:58 29.16018 -8.75810 34954 ft 478 kts 195°
2026-04-13 00:58 29.09568 -8.77497 34945 ft 477 kts 196°
2026-04-13 00:59 29.03097 -8.79186 34966 ft 476 kts 196°
2026-04-13 00:59 28.96642 -8.80868 34949 ft 475 kts 196°
2026-04-13 01:00 28.90208 -8.82540 34946 ft 474 kts 197°
2026-04-13 01:00 28.83769 -8.84198 34954 ft 473 kts 196°
2026-04-13 01:01 28.77376 -8.85850 34960 ft 471 kts 197°
2026-04-13 01:01 28.71010 -8.87499 34953 ft 470 kts 197°
2026-04-13 01:02 28.64629 -8.89148 34960 ft 469 kts 197°
2026-04-13 01:02 28.58263 -8.90792 34963 ft 467 kts 197°
2026-04-13 01:03 28.51915 -8.92428 34965 ft 466 kts 197°
2026-04-13 01:03 28.45632 -8.94042 34971 ft 465 kts 197°
2026-04-13 01:04 28.39324 -8.95664 34981 ft 464 kts 197°
2026-04-13 01:04 28.33034 -8.97269 34982 ft 463 kts 197°
2026-04-13 01:05 28.26763 -8.98879 34990 ft 462 kts 197°
2026-04-13 01:05 28.20484 -9.00496 34994 ft 462 kts 197°
2026-04-13 01:06 28.14219 -9.02101 34993 ft 461 kts 197°
2026-04-13 01:06 28.08002 -9.03689 34996 ft 461 kts 198°
2026-04-13 01:07 28.01735 -9.05287 34997 ft 461 kts 198°
2026-04-13 01:07 27.95479 -9.06880 34999 ft 460 kts 198°
2026-04-13 01:08 27.89236 -9.08470 34997 ft 459 kts 198°
2026-04-13 01:08 27.83003 -9.10057 34998 ft 458 kts 198°
2026-04-13 01:09 27.76797 -9.11636 35000 ft 457 kts 198°
2026-04-13 01:09 27.70635 -9.13135 34992 ft 459 kts 191°
2026-04-13 01:09 27.67401 -9.13020 35010 ft 471 kts 174°
2026-04-13 01:10 27.64252 -9.11883 34989 ft 483 kts 157°
2026-04-13 01:10 27.59652 -9.08213 35006 ft 490 kts 146°
2026-04-13 01:11 27.54356 -9.03356 35000 ft 490 kts 146°
2026-04-13 01:11 27.49064 -8.98518 34988 ft 489 kts 146°
2026-04-13 01:12 27.43728 -8.93740 34986 ft 489 kts 147°
2026-04-13 01:12 27.38380 -8.89000 34989 ft 490 kts 148°
2026-04-13 01:13 27.33035 -8.84289 34998 ft 492 kts 148°
2026-04-13 01:13 27.27642 -8.79531 34992 ft 493 kts 148°
2026-04-13 01:14 27.22232 -8.74753 34989 ft 495 kts 148°
2026-04-13 01:14 27.16799 -8.69959 34985 ft 497 kts 149°
2026-04-13 01:15 27.11344 -8.65154 34991 ft 499 kts 149°
2026-04-13 01:15 27.05873 -8.60338 34981 ft 500 kts 149°
2026-04-13 01:16 27.00385 -8.55516 34975 ft 502 kts 149°
2026-04-13 01:16 26.94912 -8.50715 34978 ft 502 kts 150°
2026-04-13 01:17 26.89396 -8.45884 34971 ft 502 kts 150°
2026-04-13 01:17 26.83884 -8.41060 34973 ft 502 kts 150°
2026-04-13 01:18 26.78378 -8.36246 34970 ft 501 kts 150°
2026-04-13 01:18 26.72915 -8.31473 34966 ft 501 kts 150°
2026-04-13 01:19 26.67435 -8.26678 34961 ft 500 kts 151°
2026-04-13 01:19 26.61949 -8.21899 34960 ft 499 kts 151°
2026-04-13 01:20 26.56464 -8.17135 34962 ft 498 kts 151°
2026-04-13 01:20 26.51029 -8.12418 34960 ft 498 kts 152°
2026-04-13 01:21 26.45563 -8.07677 34961 ft 498 kts 152°
2026-04-13 01:21 26.40091 -8.02937 34953 ft 498 kts 152°
2026-04-13 01:22 26.34611 -7.98194 34953 ft 499 kts 152°
2026-04-13 01:22 26.29116 -7.93443 34955 ft 499 kts 153°
2026-04-13 01:23 26.23621 -7.88699 34954 ft 501 kts 153°
2026-04-13 01:23 26.18098 -7.83937 34954 ft 502 kts 153°
2026-04-13 01:24 26.12598 -7.79217 34955 ft 503 kts 153°
2026-04-13 01:24 26.07045 -7.74446 34948 ft 504 kts 153°
2026-04-13 01:25 26.01490 -7.69670 34950 ft 505 kts 154°
2026-04-13 01:25 25.95923 -7.64891 34943 ft 506 kts 154°
2026-04-13 01:26 25.90340 -7.60104 34955 ft 506 kts 154°
2026-04-13 01:26 25.84788 -7.55352 34944 ft 506 kts 154°
2026-04-13 01:27 25.79205 -7.50581 34932 ft 506 kts 154°
2026-04-13 01:27 25.73622 -7.45815 34930 ft 506 kts 154°
2026-04-13 01:28 25.68043 -7.41060 34929 ft 505 kts 155°
2026-04-13 01:28 25.62467 -7.36310 34931 ft 505 kts 155°
2026-04-13 01:29 25.56890 -7.31565 34928 ft 505 kts 155°
2026-04-13 01:29 25.51321 -7.26832 34929 ft 504 kts 155°
2026-04-13 01:30 25.45783 -7.22126 34924 ft 504 kts 155°
2026-04-13 01:30 25.40214 -7.17399 34922 ft 504 kts 155°
2026-04-13 01:31 25.34644 -7.12678 34934 ft 504 kts 155°
2026-04-13 01:31 25.29065 -7.07952 34927 ft 505 kts 155°
2026-04-13 01:32 25.23512 -7.03253 34921 ft 505 kts 155°
2026-04-13 01:32 25.17928 -6.98534 34916 ft 506 kts 156°
2026-04-13 01:33 25.12319 -6.93804 34917 ft 506 kts 156°
2026-04-13 01:33 25.06711 -6.89081 34916 ft 507 kts 156°
2026-04-13 01:34 25.01123 -6.84379 34915 ft 508 kts 156°
2026-04-13 01:34 24.95490 -6.79644 34909 ft 509 kts 156°
2026-04-13 01:35 24.89855 -6.74912 34906 ft 510 kts 156°
2026-04-13 01:35 24.84211 -6.70179 34909 ft 510 kts 156°
2026-04-13 01:36 24.78554 -6.65440 34911 ft 511 kts 156°
2026-04-13 01:36 24.72882 -6.60695 34907 ft 512 kts 156°
2026-04-13 01:37 24.67239 -6.55979 34902 ft 512 kts 156°
2026-04-13 01:37 24.61556 -6.51234 34897 ft 513 kts 157°
2026-04-13 01:38 24.55870 -6.46493 34906 ft 513 kts 157°
2026-04-13 01:38 24.50162 -6.41742 34896 ft 514 kts 157°
2026-04-13 01:39 24.44463 -6.37002 34896 ft 514 kts 157°
2026-04-13 01:39 24.38792 -6.32291 34888 ft 514 kts 157°
2026-04-13 01:40 24.33086 -6.27558 34890 ft 514 kts 157°
2026-04-13 01:40 24.27376 -6.22826 34891 ft 514 kts 157°
2026-04-13 01:41 24.21676 -6.18109 34883 ft 513 kts 158°
2026-04-13 01:41 24.15963 -6.13385 34887 ft 513 kts 158°
2026-04-13 01:42 24.10262 -6.08678 34879 ft 513 kts 158°
2026-04-13 01:42 24.04560 -6.03977 34882 ft 513 kts 158°
2026-04-13 01:43 23.93189 -5.94620 34887 ft 513 kts 158°
2026-04-13 01:44 23.87478 -5.89928 34883 ft 513 kts 158°
2026-04-13 01:44 23.81811 -5.85276 34887 ft 513 kts 158°
2026-04-13 01:45 23.76111 -5.80603 34885 ft 513 kts 158°
2026-04-13 01:45 23.70398 -5.75925 34885 ft 513 kts 158°
2026-04-13 01:46 23.64679 -5.71247 34885 ft 513 kts 158°
2026-04-13 01:46 23.58996 -5.66604 34886 ft 513 kts 158°
2026-04-13 01:47 23.53282 -5.61941 34886 ft 513 kts 158°
2026-04-13 01:47 23.47556 -5.57273 34887 ft 513 kts 158°
2026-04-13 01:48 23.41833 -5.52612 34886 ft 513 kts 157°
2026-04-13 01:48 23.36110 -5.47958 34883 ft 513 kts 157°
2026-04-13 01:49 23.30386 -5.43306 34883 ft 513 kts 157°
2026-04-13 01:49 23.24669 -5.38666 34879 ft 513 kts 157°
2026-04-13 01:50 23.18985 -5.34058 34880 ft 512 kts 157°
2026-04-13 01:50 23.13270 -5.29429 34881 ft 511 kts 157°
2026-04-13 01:51 23.07568 -5.24816 34880 ft 511 kts 157°
2026-04-13 01:51 23.01866 -5.20208 34881 ft 510 kts 157°
2026-04-13 01:52 22.96174 -5.15614 34875 ft 509 kts 157°
2026-04-13 01:52 22.90517 -5.11053 34881 ft 509 kts 156°
2026-04-13 01:53 22.84816 -5.06461 34878 ft 509 kts 156°
2026-04-13 01:53 22.79135 -5.01890 34876 ft 508 kts 156°
2026-04-13 01:54 22.73456 -4.97327 34907 ft 510 kts 156°
2026-04-13 01:54 22.70599 -4.95033 35125 ft 508 kts 156°
2026-04-13 01:54 22.67808 -4.92788 35429 ft 504 kts 156°
2026-04-13 01:54 22.65013 -4.90538 35761 ft 499 kts 156°
2026-04-13 01:55 22.62238 -4.88306 36060 ft 494 kts 156°
2026-04-13 01:55 22.59486 -4.86097 36342 ft 491 kts 157°
2026-04-13 01:55 22.56743 -4.83899 36557 ft 488 kts 157°
2026-04-13 01:55 22.54016 -4.81719 36729 ft 487 kts 157°
2026-04-13 01:56 22.51283 -4.79535 36861 ft 485 kts 157°
2026-04-13 01:56 22.45884 -4.75226 36871 ft 485 kts 157°
2026-04-13 01:57 22.40444 -4.70886 36883 ft 486 kts 157°
2026-04-13 01:57 22.34990 -4.66536 36878 ft 487 kts 156°
2026-04-13 01:58 22.29538 -4.62190 36877 ft 487 kts 156°
2026-04-13 01:58 22.24104 -4.57861 36884 ft 488 kts 156°
2026-04-13 01:59 22.18635 -4.53511 36879 ft 488 kts 156°
2026-04-13 01:59 22.13168 -4.49165 36879 ft 488 kts 156°
2026-04-13 02:00 22.08630 -4.45560 36873 ft 487 kts 156°
2026-04-13 02:00 22.02284 -4.40524 36878 ft 486 kts 156°
2026-04-13 02:01 21.97725 -4.36910 36887 ft 485 kts 156°
2026-04-13 02:01 21.92300 -4.32614 36894 ft 485 kts 156°
2026-04-13 02:02 21.86867 -4.28316 36871 ft 484 kts 156°
2026-04-13 02:02 21.81471 -4.24051 36878 ft 483 kts 156°
2026-04-13 02:03 21.76059 -4.19777 36886 ft 482 kts 156°
2026-04-13 02:03 21.70656 -4.15516 36889 ft 481 kts 156°
2026-04-13 02:04 21.65253 -4.11258 36884 ft 481 kts 156°
2026-04-13 02:04 21.59851 -4.07005 36887 ft 480 kts 156°
2026-04-13 02:05 21.54484 -4.02783 36889 ft 480 kts 156°
2026-04-13 02:05 21.49087 -3.98542 36888 ft 480 kts 156°
2026-04-13 02:06 21.43685 -3.94300 36889 ft 480 kts 156°
2026-04-13 02:06 21.38282 -3.90063 36889 ft 480 kts 156°
2026-04-13 02:07 21.32915 -3.85856 36892 ft 480 kts 156°
2026-04-13 02:07 21.27520 -3.81631 36889 ft 480 kts 155°
2026-04-13 02:08 21.22117 -3.77404 36888 ft 480 kts 155°
2026-04-13 02:08 21.16715 -3.73183 36888 ft 480 kts 155°
2026-04-13 02:09 21.11345 -3.68992 36891 ft 480 kts 155°
2026-04-13 02:09 21.05949 -3.64784 36887 ft 479 kts 155°
2026-04-13 02:10 21.00551 -3.60577 36888 ft 479 kts 155°
2026-04-13 02:10 20.95165 -3.56382 36887 ft 478 kts 155°
2026-04-13 02:11 20.89810 -3.52217 36885 ft 478 kts 155°
2026-04-13 02:11 20.84438 -3.48041 36882 ft 477 kts 155°
2026-04-13 02:12 20.79065 -3.43869 36884 ft 477 kts 155°
2026-04-13 02:12 20.73696 -3.39704 36887 ft 476 kts 155°
2026-04-13 02:13 20.68330 -3.35545 36886 ft 476 kts 155°
2026-04-13 02:13 20.62972 -3.31396 36882 ft 475 kts 155°
2026-04-13 02:14 20.57648 -3.27276 36880 ft 475 kts 155°
2026-04-13 02:14 20.52291 -3.23134 36881 ft 475 kts 155°
2026-04-13 02:15 20.46941 -3.19002 36876 ft 474 kts 155°
2026-04-13 02:15 20.41595 -3.14876 36876 ft 474 kts 155°
2026-04-13 02:16 20.36247 -3.10754 36880 ft 474 kts 155°
2026-04-13 02:16 20.30937 -3.06663 36875 ft 474 kts 155°
2026-04-13 02:17 20.25591 -3.02548 36876 ft 473 kts 155°
2026-04-13 02:17 20.20248 -2.98439 36873 ft 473 kts 155°
2026-04-13 02:18 20.14914 -2.94341 36872 ft 473 kts 154°
2026-04-13 02:18 20.09569 -2.90238 36872 ft 473 kts 154°
2026-04-13 02:19 20.04263 -2.86168 36869 ft 473 kts 154°
2026-04-13 02:19 19.98923 -2.82076 36861 ft 473 kts 154°
2026-04-13 02:20 19.93582 -2.77986 36874 ft 472 kts 154°
2026-04-13 02:20 19.88240 -2.73899 36865 ft 472 kts 154°
2026-04-13 02:21 19.82908 -2.69823 36867 ft 472 kts 154°
2026-04-13 02:21 19.77572 -2.65748 36864 ft 472 kts 154°
2026-04-13 02:22 19.72234 -2.61675 36857 ft 472 kts 154°
2026-04-13 02:22 19.66898 -2.57606 36862 ft 472 kts 154°
2026-04-13 02:23 19.61560 -2.53540 36855 ft 472 kts 154°
2026-04-13 02:23 19.56250 -2.49497 36859 ft 472 kts 154°
2026-04-13 02:24 19.50909 -2.45435 36857 ft 473 kts 154°
2026-04-13 02:24 19.45558 -2.41368 36859 ft 473 kts 154°
2026-04-13 02:25 19.40216 -2.37312 36855 ft 472 kts 154°
2026-04-13 02:25 19.34866 -2.33253 36853 ft 472 kts 154°
2026-04-13 02:26 19.29531 -2.29208 36851 ft 472 kts 154°
2026-04-13 02:26 19.24191 -2.25164 36852 ft 471 kts 154°
2026-04-13 02:27 19.18889 -2.21151 36851 ft 471 kts 154°
2026-04-13 02:27 19.13563 -2.17123 36850 ft 470 kts 154°
2026-04-13 02:28 19.08233 -2.13095 36847 ft 470 kts 154°
2026-04-13 02:28 19.02914 -2.09080 36844 ft 470 kts 153°
2026-04-13 02:29 18.97587 -2.05062 36845 ft 469 kts 153°
2026-04-13 02:29 18.92295 -2.01073 36839 ft 469 kts 153°
2026-04-13 02:30 18.86967 -1.97060 36841 ft 469 kts 153°
2026-04-13 02:30 18.81651 -1.93059 36841 ft 470 kts 153°
2026-04-13 02:31 18.76323 -1.89053 36849 ft 470 kts 153°
2026-04-13 02:31 18.71022 -1.85070 36845 ft 470 kts 153°
2026-04-13 02:32 18.65692 -1.81068 36843 ft 470 kts 153°
2026-04-13 02:32 18.60350 -1.77060 36846 ft 470 kts 153°
2026-04-13 02:33 18.55010 -1.73058 36841 ft 471 kts 153°
2026-04-13 02:33 18.49699 -1.69084 36835 ft 471 kts 153°
2026-04-13 02:34 18.44353 -1.65087 36838 ft 471 kts 152°
2026-04-13 02:34 18.39011 -1.61096 36833 ft 470 kts 152°
2026-04-13 02:35 18.33664 -1.57104 36826 ft 470 kts 152°
2026-04-13 02:35 18.28321 -1.53119 36826 ft 470 kts 152°
2026-04-13 02:36 18.22988 -1.49145 36828 ft 470 kts 152°
2026-04-13 02:36 18.17654 -1.45172 36829 ft 470 kts 152°
2026-04-13 02:37 18.12343 -1.41220 36825 ft 470 kts 152°
2026-04-13 02:37 18.06995 -1.37240 36826 ft 471 kts 152°
2026-04-13 02:38 18.01641 -1.33260 36826 ft 471 kts 152°
2026-04-13 02:38 17.96280 -1.29277 36822 ft 472 kts 152°
2026-04-13 02:39 17.90913 -1.25294 36820 ft 472 kts 152°
2026-04-13 02:39 17.85572 -1.21332 36821 ft 473 kts 152°
2026-04-13 02:40 17.80193 -1.17346 36818 ft 474 kts 152°
2026-04-13 02:40 17.74798 -1.13351 36816 ft 474 kts 152°
2026-04-13 02:41 17.69403 -1.09358 36809 ft 474 kts 152°
2026-04-13 02:41 17.64008 -1.05369 36815 ft 474 kts 151°
2026-04-13 02:42 17.58652 -1.01411 36811 ft 474 kts 151°
2026-04-13 02:42 17.53259 -0.97428 36808 ft 474 kts 151°
2026-04-13 02:43 17.47867 -0.93450 36809 ft 474 kts 151°
2026-04-13 02:43 17.42456 -0.89461 36806 ft 474 kts 150°
2026-04-13 02:44 17.37057 -0.85483 36805 ft 474 kts 150°
2026-04-13 02:44 17.31688 -0.81530 36807 ft 475 kts 150°
2026-04-13 02:45 17.26276 -0.77548 36804 ft 475 kts 150°
2026-04-13 02:45 17.20851 -0.73561 36797 ft 476 kts 150°
2026-04-13 02:46 17.15458 -0.69599 36804 ft 477 kts 150°
2026-04-13 02:46 17.10019 -0.65607 36798 ft 478 kts 150°
2026-04-13 02:47 17.01837 -0.59606 36798 ft 479 kts 150°
2026-04-13 02:47 16.96402 -0.55624 36794 ft 481 kts 150°
2026-04-13 02:48 16.90910 -0.51604 36797 ft 482 kts 150°
2026-04-13 02:48 16.86308 -0.48236 36792 ft 483 kts 150°
2026-04-13 02:49 16.80797 -0.44206 36788 ft 484 kts 150°
2026-04-13 02:49 16.75321 -0.40205 36788 ft 484 kts 150°
2026-04-13 02:50 16.69779 -0.36159 36789 ft 485 kts 150°
2026-04-13 02:50 16.64242 -0.32118 36782 ft 485 kts 150°
2026-04-13 02:51 16.58700 -0.28078 36784 ft 486 kts 150°
2026-04-13 02:51 16.53193 -0.24065 36782 ft 486 kts 150°
2026-04-13 02:52 16.47644 -0.20025 36779 ft 486 kts 150°
2026-04-13 02:52 16.42093 -0.15987 36781 ft 485 kts 150°
2026-04-13 02:53 16.36591 -0.11987 36775 ft 485 kts 150°
2026-04-13 02:53 16.31050 -0.07962 36774 ft 485 kts 150°
2026-04-13 02:54 16.25515 -0.03943 36779 ft 484 kts 150°
2026-04-13 02:54 16.20072 0.00234 36772 ft 487 kts 147°
2026-04-13 02:55 16.14808 0.04635 36776 ft 487 kts 146°
2026-04-13 02:55 16.09532 0.09050 36777 ft 487 kts 147°
2026-04-13 02:56 16.04219 0.13437 36769 ft 487 kts 147°
2026-04-13 02:56 15.98887 0.17818 36774 ft 487 kts 147°
2026-04-13 02:57 15.93577 0.22177 36773 ft 488 kts 147°
2026-04-13 02:57 15.88272 0.26533 36768 ft 489 kts 147°
2026-04-13 02:58 15.82924 0.30924 36774 ft 489 kts 146°
2026-04-13 02:58 15.77608 0.35299 36770 ft 489 kts 146°
2026-04-13 02:59 15.72256 0.39702 36768 ft 490 kts 146°
2026-04-13 02:59 15.66920 0.44087 36770 ft 490 kts 146°
2026-04-13 03:00 15.61563 0.48485 36762 ft 491 kts 146°
2026-04-13 03:00 15.56202 0.52884 36769 ft 491 kts 146°
2026-04-13 03:01 15.50845 0.57276 36768 ft 491 kts 146°
2026-04-13 03:01 15.45504 0.61652 36761 ft 492 kts 146°
2026-04-13 03:02 15.40121 0.66048 36761 ft 491 kts 146°
2026-04-13 03:02 15.34743 0.70427 36762 ft 491 kts 146°
2026-04-13 03:03 15.29355 0.74809 36764 ft 491 kts 146°
2026-04-13 03:03 15.23971 0.79188 36760 ft 492 kts 146°
2026-04-13 03:04 15.18614 0.83542 36762 ft 491 kts 146°
2026-04-13 03:04 15.13230 0.87916 36760 ft 491 kts 146°
2026-04-13 03:05 15.07854 0.92280 36766 ft 491 kts 146°
2026-04-13 03:05 15.02512 0.96614 36763 ft 491 kts 146°
2026-04-13 03:06 14.97131 1.00976 36763 ft 490 kts 146°
2026-04-13 03:06 14.91759 1.05328 36760 ft 490 kts 146°
2026-04-13 03:07 14.86387 1.09678 36765 ft 490 kts 146°
2026-04-13 03:07 14.81055 1.13991 36760 ft 489 kts 146°
2026-04-13 03:08 14.75698 1.18323 36764 ft 489 kts 146°
2026-04-13 03:08 14.70338 1.22655 36759 ft 489 kts 146°
2026-04-13 03:09 14.64984 1.26978 36761 ft 488 kts 146°
2026-04-13 03:09 14.59617 1.31310 36762 ft 488 kts 146°
2026-04-13 03:10 14.54271 1.35621 36760 ft 488 kts 146°
2026-04-13 03:10 14.48953 1.39907 36757 ft 488 kts 146°
2026-04-13 03:11 14.43597 1.44221 36764 ft 488 kts 146°
2026-04-13 03:11 14.38242 1.48532 36761 ft 488 kts 146°
2026-04-13 03:12 14.32896 1.52834 36772 ft 487 kts 146°
2026-04-13 03:12 14.27573 1.57113 36764 ft 487 kts 146°
2026-04-13 03:13 14.22221 1.61414 36764 ft 487 kts 146°
2026-04-13 03:13 14.16867 1.65713 36774 ft 487 kts 146°
2026-04-13 03:14 14.11515 1.70008 36770 ft 487 kts 146°
2026-04-13 03:14 14.06169 1.74296 36777 ft 487 kts 146°
2026-04-13 03:15 14.00830 1.78575 36772 ft 486 kts 146°
2026-04-13 03:15 13.95518 1.82830 36773 ft 486 kts 146°
2026-04-13 03:16 13.90163 1.87117 36785 ft 486 kts 146°
2026-04-13 03:16 13.84827 1.91386 36777 ft 486 kts 146°
2026-04-13 03:17 13.79492 1.95652 36775 ft 486 kts 146°
2026-04-13 03:17 13.74186 1.99892 36786 ft 485 kts 146°
2026-04-13 03:18 13.68853 2.04151 36778 ft 485 kts 146°
2026-04-13 03:18 13.63514 2.08413 36769 ft 485 kts 145°
2026-04-13 03:19 13.58185 2.12664 36778 ft 485 kts 145°
2026-04-13 03:19 13.52882 2.16891 36773 ft 485 kts 145°
2026-04-13 03:20 13.47701 2.21327 36766 ft 488 kts 136°
2026-04-13 03:20 13.43498 2.26854 36772 ft 491 kts 128°
2026-04-13 03:21 13.39519 2.32549 36780 ft 491 kts 128°
2026-04-13 03:21 13.35498 2.38242 36783 ft 491 kts 128°
2026-04-13 03:22 13.31478 2.43854 36782 ft 491 kts 128°
2026-04-13 03:22 13.27421 2.49486 36787 ft 490 kts 128°
2026-04-13 03:23 13.23354 2.55128 36778 ft 490 kts 128°
2026-04-13 03:23 13.19297 2.60756 36785 ft 490 kts 128°
2026-04-13 03:24 13.15237 2.66388 36788 ft 490 kts 128°
2026-04-13 03:24 13.11201 2.71983 36785 ft 490 kts 128°
2026-04-13 03:25 13.07142 2.77606 36782 ft 490 kts 128°
2026-04-13 03:25 13.03079 2.83230 36777 ft 490 kts 128°
2026-04-13 03:26 12.99020 2.88846 36785 ft 490 kts 128°
2026-04-13 03:26 12.94984 2.94427 36767 ft 490 kts 128°
2026-04-13 03:27 12.90928 3.00031 36771 ft 490 kts 128°
2026-04-13 03:27 12.86864 3.05643 36774 ft 490 kts 128°
2026-04-13 03:28 12.82785 3.11272 36764 ft 490 kts 128°
2026-04-13 03:28 12.78723 3.16875 36777 ft 490 kts 128°
2026-04-13 03:29 12.74651 3.22488 36764 ft 490 kts 128°
2026-04-13 03:29 12.70581 3.28094 36775 ft 490 kts 128°
2026-04-13 03:30 12.66516 3.33689 36769 ft 490 kts 128°
2026-04-13 03:30 12.62465 3.39263 36769 ft 490 kts 128°
2026-04-13 03:31 12.58389 3.44867 36772 ft 490 kts 128°
2026-04-13 03:31 12.54311 3.50476 36759 ft 490 kts 128°
2026-04-13 03:32 12.50243 3.56072 36763 ft 490 kts 128°
2026-04-13 03:32 12.46199 3.61629 36760 ft 490 kts 128°
2026-04-13 03:33 12.41833 3.66951 36772 ft 487 kts 135°
2026-04-13 03:33 12.37170 3.71986 36766 ft 487 kts 135°
2026-04-13 03:34 12.32501 3.77019 36765 ft 487 kts 135°
2026-04-13 03:34 12.27873 3.82084 36759 ft 487 kts 135°
2026-04-13 03:35 12.23293 3.87126 36770 ft 487 kts 135°
2026-04-13 03:35 12.18677 3.92208 36766 ft 487 kts 135°
2026-04-13 03:36 12.14845 3.96422 36760 ft 486 kts 135°
2026-04-13 03:36 12.10232 4.01490 36769 ft 486 kts 134°
2026-04-13 03:37 12.04877 4.07369 36765 ft 486 kts 134°
2026-04-13 03:37 12.01014 4.11607 36758 ft 486 kts 134°
2026-04-13 03:38 11.96427 4.16638 36767 ft 486 kts 134°
2026-04-13 03:38 11.91814 4.21694 36761 ft 487 kts 134°
2026-04-13 03:39 11.87187 4.26764 36765 ft 487 kts 134°
2026-04-13 03:39 11.82595 4.31790 36766 ft 487 kts 134°
2026-04-13 03:40 11.77976 4.36844 36767 ft 487 kts 134°
2026-04-13 03:40 11.73343 4.41910 36778 ft 487 kts 134°
2026-04-13 03:41 11.68718 4.46963 36769 ft 487 kts 134°
2026-04-13 03:41 11.64087 4.52021 36774 ft 487 kts 134°
2026-04-13 03:42 11.59460 4.57072 36768 ft 487 kts 135°
2026-04-13 03:43 11.52462 4.64607 36777 ft 487 kts 135°
2026-04-13 03:43 11.47784 4.69618 36777 ft 487 kts 135°
2026-04-13 03:44 11.43138 4.74600 36776 ft 488 kts 135°
2026-04-13 03:44 11.38461 4.79617 36790 ft 487 kts 135°
2026-04-13 03:45 11.33785 4.84631 36782 ft 488 kts 135°
2026-04-13 03:45 11.29114 4.89637 36783 ft 488 kts 135°
2026-04-13 03:46 11.24434 4.94651 36786 ft 488 kts 135°
2026-04-13 03:46 11.19758 4.99658 36793 ft 488 kts 135°
2026-04-13 03:47 11.15072 5.04672 36791 ft 488 kts 135°
2026-04-13 03:47 11.10429 5.09638 36795 ft 488 kts 135°
2026-04-13 03:48 11.05746 5.14644 36796 ft 487 kts 135°
2026-04-13 03:48 11.01067 5.19644 36796 ft 487 kts 135°
2026-04-13 03:49 10.96385 5.24645 36795 ft 487 kts 135°
2026-04-13 03:49 10.91706 5.29639 36797 ft 487 kts 135°
2026-04-13 03:50 10.87033 5.34624 36801 ft 487 kts 135°
2026-04-13 03:50 10.82358 5.39610 36805 ft 487 kts 135°
2026-04-13 03:51 10.77708 5.44567 36800 ft 487 kts 135°
2026-04-13 03:51 10.73028 5.49553 36807 ft 487 kts 135°
2026-04-13 03:52 10.66004 5.57032 36806 ft 487 kts 135°
2026-04-13 03:52 10.61321 5.62016 36806 ft 487 kts 135°
2026-04-13 03:53 10.56642 5.66991 36809 ft 487 kts 135°
2026-04-13 03:53 10.51990 5.71938 36810 ft 487 kts 135°
2026-04-13 03:54 10.47306 5.76914 36813 ft 487 kts 135°
2026-04-13 03:54 10.42614 5.81898 36816 ft 487 kts 135°
2026-04-13 03:55 10.37932 5.86868 36814 ft 487 kts 135°
2026-04-13 03:55 10.33255 5.91831 36821 ft 487 kts 135°
2026-04-13 03:56 10.28571 5.96812 36818 ft 487 kts 134°
2026-04-13 03:56 10.23931 6.01754 36821 ft 486 kts 134°
2026-04-13 03:57 10.19262 6.06720 36824 ft 486 kts 134°
2026-04-13 03:57 10.14589 6.11688 36829 ft 485 kts 134°
2026-04-13 03:58 10.09913 6.16638 36824 ft 485 kts 135°
2026-04-13 03:58 10.05239 6.21569 36832 ft 484 kts 135°
2026-04-13 03:59 10.00601 6.26461 36828 ft 483 kts 135°
2026-04-13 03:59 9.95942 6.31376 36834 ft 483 kts 135°
2026-04-13 04:00 9.91283 6.36291 36830 ft 482 kts 134°
2026-04-13 04:00 9.86649 6.41197 36828 ft 481 kts 134°
2026-04-13 04:01 9.82022 6.46095 36833 ft 481 kts 134°
2026-04-13 04:01 9.77387 6.50995 36827 ft 480 kts 134°
2026-04-13 04:02 9.72769 6.55876 36834 ft 479 kts 134°
2026-04-13 04:02 9.68195 6.60739 36832 ft 479 kts 133°
2026-04-13 04:03 9.63683 6.65722 36833 ft 479 kts 133°
2026-04-13 04:03 9.59196 6.70713 36840 ft 478 kts 133°
2026-04-13 04:04 9.54700 6.75685 36837 ft 478 kts 133°
2026-04-13 04:04 9.50221 6.80622 36842 ft 478 kts 133°
2026-04-13 04:05 9.45715 6.85584 36845 ft 479 kts 133°
2026-04-13 04:05 9.41194 6.90562 36841 ft 479 kts 133°
2026-04-13 04:06 9.36673 6.95540 36841 ft 480 kts 133°
2026-04-13 04:06 9.32154 7.00512 36850 ft 480 kts 133°
2026-04-13 04:07 9.27585 7.05391 36844 ft 480 kts 135°
2026-04-13 04:07 9.22749 7.10083 36850 ft 481 kts 136°
2026-04-13 04:08 9.17878 7.14766 36849 ft 482 kts 136°
2026-04-13 04:08 9.13036 7.19479 36856 ft 483 kts 136°
2026-04-13 04:09 9.08237 7.24169 36852 ft 483 kts 136°
2026-04-13 04:09 9.03404 7.28888 36856 ft 483 kts 136°
2026-04-13 04:10 8.98545 7.33598 36850 ft 483 kts 136°
2026-04-13 04:10 8.93722 7.38255 36852 ft 482 kts 136°
2026-04-13 04:11 8.88857 7.42953 36850 ft 482 kts 136°
2026-04-13 04:11 8.84025 7.47621 36847 ft 481 kts 136°
2026-04-13 04:12 8.79178 7.52302 36847 ft 480 kts 136°
2026-04-13 04:12 8.74351 7.56962 36848 ft 479 kts 136°
2026-04-13 04:13 8.69561 7.61586 36847 ft 479 kts 136°
2026-04-13 04:13 8.64742 7.66235 36844 ft 478 kts 136°
2026-04-13 04:14 8.59932 7.70873 36841 ft 478 kts 136°
2026-04-13 04:14 8.55119 7.75513 36839 ft 478 kts 136°
2026-04-13 04:15 8.50297 7.80160 36837 ft 478 kts 136°
2026-04-13 04:15 8.45515 7.84767 36837 ft 478 kts 136°
2026-04-13 04:16 8.40700 7.89403 36836 ft 479 kts 136°
2026-04-13 04:16 8.35868 7.94054 36836 ft 479 kts 136°
2026-04-13 04:17 8.31036 7.98704 36835 ft 480 kts 136°
2026-04-13 04:17 8.26198 8.03356 36833 ft 480 kts 136°
2026-04-13 04:18 8.21385 8.07993 36833 ft 481 kts 135°
2026-04-13 04:18 8.16703 8.12828 36833 ft 481 kts 133°
2026-04-13 04:19 8.12100 8.17733 36833 ft 481 kts 133°
2026-04-13 04:19 8.07473 8.22622 36830 ft 482 kts 133°
2026-04-13 04:20 8.02848 8.27467 36831 ft 482 kts 134°
2026-04-13 04:20 7.98197 8.32327 36832 ft 482 kts 134°
2026-04-13 04:21 7.93542 8.37190 36833 ft 481 kts 134°
2026-04-13 04:21 7.88886 8.42056 36835 ft 481 kts 134°
2026-04-13 04:22 7.84234 8.46916 36835 ft 481 kts 134°
2026-04-13 04:22 7.79588 8.51768 36835 ft 481 kts 134°
2026-04-13 04:23 7.74971 8.56588 36836 ft 480 kts 134°
2026-04-13 04:23 7.70264 8.61367 36835 ft 480 kts 137°
2026-04-13 04:24 7.65250 8.65798 36843 ft 479 kts 139°
2026-04-13 04:24 7.60169 8.70160 36841 ft 479 kts 139°
2026-04-13 04:25 7.55118 8.74549 36842 ft 479 kts 139°
2026-04-13 04:25 7.50093 8.78953 36839 ft 478 kts 139°
2026-04-13 04:26 7.45068 8.83362 36848 ft 478 kts 139°
2026-04-13 04:26 7.40082 8.87732 36856 ft 478 kts 139°
2026-04-13 04:27 7.35065 8.92127 36843 ft 478 kts 139°
2026-04-13 04:27 7.30042 8.96525 36849 ft 478 kts 139°
2026-04-13 04:28 7.25873 9.00180 36855 ft 478 kts 137°
2026-04-13 04:28 7.21274 9.05010 36862 ft 477 kts 131°
2026-04-13 04:29 7.16894 9.10032 36843 ft 477 kts 131°
2026-04-13 04:29 7.12436 9.14991 36848 ft 477 kts 133°
2026-04-13 04:30 7.09908 9.17141 36842 ft 476 kts 148°
2026-04-13 04:30 7.06988 9.18608 36852 ft 475 kts 161°
2026-04-13 04:30 7.03787 9.19401 36849 ft 473 kts 175°
2026-04-13 04:30 7.00510 9.19647 36866 ft 473 kts 177°
2026-04-13 04:31 6.93929 9.19985 36855 ft 474 kts 178°
2026-04-13 04:31 6.87337 9.20351 36851 ft 475 kts 177°
2026-04-13 04:32 6.80739 9.20771 36858 ft 475 kts 177°
2026-04-13 04:32 6.74122 9.21213 36857 ft 476 kts 176°
2026-04-13 04:33 6.67544 9.21653 36863 ft 476 kts 176°
2026-04-13 04:33 6.60918 9.22094 36868 ft 477 kts 176°
2026-04-13 04:34 6.54293 9.22533 36876 ft 477 kts 176°
2026-04-13 04:34 6.47667 9.22972 36872 ft 477 kts 176°
2026-04-13 04:35 6.41035 9.23412 36873 ft 476 kts 176°
2026-04-13 04:35 6.34465 9.23848 36872 ft 476 kts 176°
2026-04-13 04:36 6.27865 9.24284 36873 ft 475 kts 176°
2026-04-13 04:36 6.21273 9.24719 36872 ft 474 kts 176°
2026-04-13 04:37 6.14690 9.25185 36872 ft 474 kts 174°
2026-04-13 04:37 6.08123 9.25953 36874 ft 473 kts 173°
2026-04-13 04:38 6.01594 9.26781 36872 ft 473 kts 173°
2026-04-13 04:38 5.95062 9.27564 36867 ft 472 kts 173°
2026-04-13 04:39 5.88534 9.28322 36866 ft 472 kts 173°
2026-04-13 04:39 5.82055 9.29072 36866 ft 471 kts 173°
2026-04-13 04:40 5.75543 9.29827 36864 ft 471 kts 173°
2026-04-13 04:40 5.69025 9.30661 36866 ft 472 kts 169°
2026-04-13 04:41 5.62607 9.32007 36867 ft 472 kts 167°
2026-04-13 04:41 5.56191 9.33490 36871 ft 472 kts 167°
2026-04-13 04:42 5.49764 9.34938 36871 ft 473 kts 167°
2026-04-13 04:43 5.36874 9.37748 36878 ft 475 kts 167°
2026-04-13 04:43 5.30448 9.39143 36877 ft 476 kts 167°
2026-04-13 04:44 5.23964 9.40551 36883 ft 476 kts 167°
2026-04-13 04:44 5.17480 9.41961 36888 ft 476 kts 167°
2026-04-13 04:45 5.11029 9.43362 36884 ft 477 kts 167°
2026-04-13 04:45 5.04538 9.44773 36887 ft 476 kts 167°
2026-04-13 04:46 4.98062 9.46179 36892 ft 476 kts 167°
2026-04-13 04:46 4.91585 9.47586 36889 ft 476 kts 167°
2026-04-13 04:47 4.85147 9.48983 36887 ft 475 kts 167°
2026-04-13 04:47 4.78677 9.50388 36882 ft 475 kts 167°
2026-04-13 04:48 4.72220 9.51789 36875 ft 475 kts 167°
2026-04-13 04:48 4.65766 9.53189 36868 ft 474 kts 167°
2026-04-13 04:49 4.59319 9.54586 36865 ft 474 kts 167°
2026-04-13 04:49 4.52873 9.55984 36864 ft 473 kts 167°
2026-04-13 04:50 4.46508 9.57615 36855 ft 472 kts 161°
2026-04-13 04:50 4.40317 9.59825 36850 ft 472 kts 160°
2026-04-13 04:51 4.34139 9.62061 36845 ft 472 kts 160°
2026-04-13 04:51 4.27985 9.64246 36841 ft 472 kts 160°
2026-04-13 04:52 4.21780 9.66429 36834 ft 472 kts 160°
2026-04-13 04:52 4.15567 9.68614 36831 ft 473 kts 160°
2026-04-13 04:53 4.09353 9.70800 36830 ft 473 kts 160°
2026-04-13 04:53 4.03168 9.72976 36831 ft 474 kts 160°
2026-04-13 04:54 3.97145 9.75635 36824 ft 474 kts 147°
2026-04-13 04:54 3.91645 9.79274 36828 ft 474 kts 146°
2026-04-13 04:55 3.86172 9.82972 36834 ft 475 kts 146°
2026-04-13 04:55 3.80661 9.86643 36836 ft 476 kts 146°
2026-04-13 04:56 3.75115 9.90301 36882 ft 475 kts 146°
2026-04-13 04:56 3.69684 9.93871 36838 ft 465 kts 146°
2026-04-13 04:57 3.64300 9.97411 36859 ft 463 kts 146°
2026-04-13 04:57 3.58913 10.00955 36848 ft 463 kts 146°
2026-04-13 04:58 3.53537 10.04492 36854 ft 463 kts 146°
2026-04-13 04:58 3.48139 10.08043 36849 ft 464 kts 146°
2026-04-13 04:59 3.42727 10.11602 36859 ft 466 kts 146°
2026-04-13 04:59 3.37302 10.15170 36861 ft 467 kts 146°
2026-04-13 05:00 3.31852 10.18753 36864 ft 468 kts 146°
2026-04-13 05:00 3.26403 10.22335 36863 ft 470 kts 146°
2026-04-13 05:01 3.20964 10.25910 36872 ft 470 kts 146°
2026-04-13 05:01 3.15497 10.29503 36883 ft 471 kts 146°
2026-04-13 05:02 3.10013 10.33107 36880 ft 470 kts 146°
2026-04-13 05:02 3.04544 10.36700 36889 ft 470 kts 146°
2026-04-13 05:03 2.99075 10.40294 36895 ft 469 kts 146°
2026-04-13 05:03 2.93644 10.43862 36893 ft 469 kts 146°
2026-04-13 05:04 2.88183 10.47448 36909 ft 468 kts 146°
2026-04-13 05:04 2.82730 10.51029 36905 ft 468 kts 146°
2026-04-13 05:05 2.77321 10.54581 36910 ft 467 kts 146°
2026-04-13 05:05 2.71883 10.58151 36917 ft 467 kts 146°
2026-04-13 05:06 2.66445 10.61721 36914 ft 467 kts 146°
2026-04-13 05:06 2.61018 10.65284 36920 ft 466 kts 146°
2026-04-13 05:07 2.55619 10.68827 36918 ft 466 kts 146°
2026-04-13 05:07 2.50196 10.72386 36926 ft 466 kts 146°
2026-04-13 05:08 2.44769 10.75946 36927 ft 467 kts 146°
2026-04-13 05:08 2.39339 10.79507 36924 ft 467 kts 146°
2026-04-13 05:09 2.33901 10.83071 36923 ft 467 kts 146°
2026-04-13 05:09 2.28453 10.86641 36923 ft 468 kts 146°
2026-04-13 05:10 2.23000 10.90215 36923 ft 468 kts 146°
2026-04-13 05:10 2.17587 10.93762 36925 ft 469 kts 146°
2026-04-13 05:11 2.12117 10.97346 36932 ft 470 kts 146°
2026-04-13 05:11 2.06646 11.00931 36932 ft 470 kts 146°
2026-04-13 05:12 2.01165 11.04522 36928 ft 471 kts 146°
2026-04-13 05:12 1.95675 11.08118 36932 ft 471 kts 146°
2026-04-13 05:13 1.90185 11.11713 36932 ft 471 kts 146°
2026-04-13 05:13 1.84731 11.15284 36932 ft 471 kts 146°
2026-04-13 05:14 1.79251 11.18872 36931 ft 471 kts 146°
2026-04-13 05:14 1.73776 11.22457 36932 ft 471 kts 146°
2026-04-13 05:15 1.68299 11.26043 36933 ft 470 kts 146°
2026-04-13 05:15 1.63739 11.29027 36931 ft 470 kts 146°
2026-04-13 05:16 1.58266 11.32610 36935 ft 470 kts 146°
2026-04-13 05:16 1.52800 11.36188 36937 ft 469 kts 146°
2026-04-13 05:17 1.47365 11.39745 36934 ft 469 kts 146°
2026-04-13 05:17 1.41908 11.43316 36932 ft 469 kts 147°
2026-04-13 05:18 1.36447 11.46890 36934 ft 469 kts 147°
2026-04-13 05:18 1.30989 11.50461 36933 ft 469 kts 147°
2026-04-13 05:19 1.25529 11.54033 36930 ft 469 kts 147°
2026-04-13 05:19 1.20073 11.57602 36934 ft 469 kts 147°
2026-04-13 05:20 1.14611 11.61173 36932 ft 469 kts 147°
2026-04-13 05:20 1.09170 11.64730 36931 ft 469 kts 147°
2026-04-13 05:21 1.03705 11.68303 36929 ft 469 kts 147°
2026-04-13 05:21 0.98230 11.71882 36930 ft 469 kts 147°
2026-04-13 05:22 0.92764 11.75455 36928 ft 469 kts 146°
2026-04-13 05:22 0.87298 11.79027 36928 ft 469 kts 146°
2026-04-13 05:23 0.81845 11.82590 36930 ft 469 kts 147°
2026-04-13 05:23 0.76422 11.86134 36932 ft 468 kts 147°
2026-04-13 05:24 0.70965 11.89704 36934 ft 468 kts 146°
2026-04-13 05:24 0.65529 11.93279 36933 ft 468 kts 146°
2026-04-13 05:25 0.60081 11.96862 36933 ft 467 kts 146°
2026-04-13 05:25 0.54646 12.00434 36934 ft 467 kts 146°
2026-04-13 05:26 0.49217 12.03999 36934 ft 466 kts 147°
2026-04-13 05:26 0.43790 12.07551 36935 ft 466 kts 147°
2026-04-13 05:27 0.38401 12.11075 36929 ft 465 kts 147°
2026-04-13 05:27 0.32982 12.14618 36929 ft 465 kts 146°
2026-04-13 05:28 0.27563 12.18162 36932 ft 465 kts 146°
2026-04-13 05:28 0.22154 12.21700 36930 ft 465 kts 146°
2026-04-13 05:29 0.16728 12.25250 36930 ft 466 kts 146°
2026-04-13 05:29 0.11323 12.28785 36930 ft 467 kts 146°
2026-04-13 05:30 0.05880 12.32346 36929 ft 468 kts 146°
2026-04-13 05:30 0.00412 12.35922 36934 ft 469 kts 146°
2026-04-13 05:31 -0.05055 12.39498 36937 ft 471 kts 146°
2026-04-13 05:31 -0.10515 12.43069 36932 ft 472 kts 146°
2026-04-13 05:32 -0.16015 12.46667 36933 ft 473 kts 146°
2026-04-13 05:32 -0.21524 12.50270 36932 ft 473 kts 146°
2026-04-13 05:33 -0.27005 12.53856 36933 ft 473 kts 147°
2026-04-13 05:33 -0.32548 12.57481 36931 ft 473 kts 147°
2026-04-13 05:34 -0.38016 12.61058 36932 ft 473 kts 147°
2026-04-13 05:34 -0.43521 12.64658 36933 ft 472 kts 147°
2026-04-13 05:35 -0.49000 12.68242 36930 ft 472 kts 147°
2026-04-13 05:35 -0.54488 12.71832 36932 ft 471 kts 147°
2026-04-13 05:36 -0.59974 12.75421 36928 ft 471 kts 146°
2026-04-13 05:36 -0.65464 12.79012 36932 ft 471 kts 146°
2026-04-13 05:37 -0.70950 12.82600 36932 ft 470 kts 146°
2026-04-13 05:37 -0.76385 12.86155 36931 ft 470 kts 146°
2026-04-13 05:38 -0.81858 12.89736 36932 ft 470 kts 146°
2026-04-13 05:38 -0.87323 12.93316 36934 ft 470 kts 146°
2026-04-13 05:39 -0.92783 12.96894 36934 ft 470 kts 146°
2026-04-13 05:39 -0.98254 13.00478 36933 ft 470 kts 146°
2026-04-13 05:40 -1.03732 13.04065 36932 ft 470 kts 146°
2026-04-13 05:40 -1.09157 13.07619 36931 ft 470 kts 146°
2026-04-13 05:41 -1.14643 13.11213 36928 ft 470 kts 146°
2026-04-13 05:41 -1.20117 13.14798 36927 ft 470 kts 146°
2026-04-13 05:42 -1.25592 13.18385 36932 ft 470 kts 146°
2026-04-13 05:43 -1.33754 13.23732 36931 ft 470 kts 146°
2026-04-13 05:43 -1.39251 13.27334 36933 ft 470 kts 146°
2026-04-13 05:44 -1.44733 13.30926 36928 ft 471 kts 146°
2026-04-13 05:44 -1.50204 13.34510 36930 ft 471 kts 146°
2026-04-13 05:45 -1.55687 13.38102 36935 ft 471 kts 146°
2026-04-13 05:45 -1.61163 13.41690 36934 ft 471 kts 146°
2026-04-13 05:46 -1.66635 13.45289 36933 ft 471 kts 145°
2026-04-13 05:46 -1.71974 13.49007 36939 ft 471 kts 144°
2026-04-13 05:47 -1.77324 13.52800 36933 ft 471 kts 144°
2026-04-13 05:47 -1.82679 13.56568 36933 ft 471 kts 144°
2026-04-13 05:48 -1.88053 13.60331 36937 ft 471 kts 144°
2026-04-13 05:48 -1.93422 13.64087 36937 ft 471 kts 144°
2026-04-13 05:49 -1.98754 13.67819 36939 ft 471 kts 144°
2026-04-13 05:49 -2.04125 13.71578 36942 ft 470 kts 144°
2026-04-13 05:50 -2.09494 13.75337 36937 ft 470 kts 144°
2026-04-13 05:50 -2.14835 13.79064 36938 ft 470 kts 145°
2026-04-13 05:51 -2.20219 13.82814 36937 ft 471 kts 145°
2026-04-13 05:51 -2.25598 13.86559 36939 ft 471 kts 145°
2026-04-13 05:52 -2.30987 13.90286 36940 ft 471 kts 145°
2026-04-13 05:52 -2.36349 13.93987 36940 ft 471 kts 145°
2026-04-13 05:53 -2.41742 13.97712 36943 ft 471 kts 145°
2026-04-13 05:53 -2.47137 14.01440 36941 ft 471 kts 145°
2026-04-13 05:54 -2.52533 14.05170 36942 ft 472 kts 145°
2026-04-13 05:54 -2.57944 14.08911 36941 ft 472 kts 145°
2026-04-13 05:55 -2.63349 14.12648 36944 ft 472 kts 145°
2026-04-13 05:55 -2.68724 14.16365 36940 ft 472 kts 145°
2026-04-13 05:56 -2.74136 14.20107 36941 ft 472 kts 145°
2026-04-13 05:56 -2.79545 14.23848 36940 ft 473 kts 145°
2026-04-13 05:57 -2.84955 14.27590 36934 ft 473 kts 145°
2026-04-13 05:57 -2.90365 14.31333 36937 ft 473 kts 145°
2026-04-13 05:58 -2.95778 14.35078 36933 ft 473 kts 145°
2026-04-13 05:58 -3.01158 14.38801 36936 ft 473 kts 145°
2026-04-13 05:59 -3.06570 14.42546 36938 ft 473 kts 145°
2026-04-13 05:59 -3.11978 14.46288 36936 ft 473 kts 145°
2026-04-13 06:00 -3.17362 14.50015 36933 ft 473 kts 145°
2026-04-13 06:00 -3.22775 14.53763 36937 ft 473 kts 145°
2026-04-13 06:01 -3.28183 14.57507 36942 ft 473 kts 145°
2026-04-13 06:01 -3.33598 14.61257 36930 ft 473 kts 145°
2026-04-13 06:02 -3.39018 14.65011 36935 ft 473 kts 145°
2026-04-13 06:02 -3.44390 14.68732 36934 ft 473 kts 145°
2026-04-13 06:03 -3.49818 14.72492 36929 ft 473 kts 145°
2026-04-13 06:03 -3.55228 14.76240 36927 ft 473 kts 145°
2026-04-13 06:04 -3.60638 14.79989 36926 ft 473 kts 145°
2026-04-13 06:04 -3.66069 14.83753 36922 ft 473 kts 146°
2026-04-13 06:05 -3.71445 14.87480 36926 ft 473 kts 146°
2026-04-13 06:05 -3.73276 14.88749 36690 ft 477 kts 145°
2026-04-13 06:05 -3.76921 14.91276 35848 ft 481 kts 145°
2026-04-13 06:05 -3.79680 14.93189 35180 ft 480 kts 145°
2026-04-13 06:06 -3.82424 14.95091 34494 ft 479 kts 145°
2026-04-13 06:06 -3.84233 14.96346 34050 ft 478 kts 145°
2026-04-13 06:06 -3.86973 14.98246 33308 ft 477 kts 145°
2026-04-13 06:06 -3.89699 15.00137 32569 ft 476 kts 145°
2026-04-13 06:07 -3.92416 15.02021 31853 ft 476 kts 145°
2026-04-13 06:07 -3.95151 15.03918 31161 ft 479 kts 145°
2026-04-13 06:07 -3.97855 15.05793 30474 ft 477 kts 145°
2026-04-13 06:07 -4.00598 15.07695 29755 ft 477 kts 145°
2026-04-13 06:08 -4.03326 15.09588 28965 ft 475 kts 145°
2026-04-13 06:08 -4.05971 15.11423 28221 ft 474 kts 145°
2026-04-13 06:08 -4.08671 15.13296 27472 ft 472 kts 144°
2026-04-13 06:08 -4.11337 15.15146 26759 ft 470 kts 144°
2026-04-13 06:09 -4.14016 15.17005 26051 ft 468 kts 144°
2026-04-13 06:09 -4.16657 15.18839 25372 ft 466 kts 144°
2026-04-13 06:09 -4.19323 15.20662 24690 ft 463 kts 148°
2026-04-13 06:09 -4.22285 15.21917 24003 ft 463 kts 166°
2026-04-13 06:10 -4.25468 15.22219 23347 ft 462 kts 183°
2026-04-13 06:10 -4.28636 15.21662 22585 ft 459 kts 197°
2026-04-13 06:10 -4.31526 15.20318 21832 ft 457 kts 213°
2026-04-13 06:10 -4.34125 15.18500 21125 ft 454 kts 216°
2026-04-13 06:11 -4.36625 15.16667 20407 ft 444 kts 216°
2026-04-13 06:11 -4.39079 15.14862 19701 ft 432 kts 215°
2026-04-13 06:11 -4.41475 15.13121 19181 ft 417 kts 214°
2026-04-13 06:11 -4.43798 15.11456 18682 ft 405 kts 214°
2026-04-13 06:12 -4.46091 15.09824 18198 ft 402 kts 214°
2026-04-13 06:12 -4.48382 15.08200 17644 ft 400 kts 214°
2026-04-13 06:12 -4.50622 15.06612 17112 ft 398 kts 214°
2026-04-13 06:12 -4.52886 15.05007 16563 ft 396 kts 214°
2026-04-13 06:13 -4.55134 15.03413 16031 ft 394 kts 214°
2026-04-13 06:13 -4.57233 15.01923 15578 ft 392 kts 214°
2026-04-13 06:13 -4.59437 15.00358 15161 ft 387 kts 214°
2026-04-13 06:13 -4.61623 14.98807 14759 ft 383 kts 214°
2026-04-13 06:14 -4.63787 14.97272 14324 ft 379 kts 214°
2026-04-13 06:14 -4.68444 14.95117 13483 ft 367 kts 182°
2026-04-13 06:14 -4.70949 14.95311 13032 ft 358 kts 162°
2026-04-13 06:15 -4.73190 14.96307 12579 ft 350 kts 142°
2026-04-13 06:15 -4.74863 14.97980 12153 ft 343 kts 122°
2026-04-13 06:15 -4.75790 15.00008 11746 ft 336 kts 103°
2026-04-13 06:15 -4.76055 15.02315 11319 ft 332 kts 86°
2026-04-13 06:16 -4.75635 15.04570 11028 ft 326 kts 74°
2026-04-13 06:16 -4.75038 15.06671 10974 ft 334 kts 73°
2026-04-13 06:16 -4.74341 15.08983 10955 ft 357 kts 72°
2026-04-13 06:16 -4.73604 15.11415 10945 ft 369 kts 72°
2026-04-13 06:17 -4.72860 15.13894 10928 ft 372 kts 73°
2026-04-13 06:17 -4.72125 15.16378 10917 ft 371 kts 73°
2026-04-13 06:17 -4.71398 15.18854 10920 ft 370 kts 73°
2026-04-13 06:17 -4.70682 15.21308 10918 ft 370 kts 73°
2026-04-13 06:18 -4.69962 15.23784 10916 ft 370 kts 73°
2026-04-13 06:18 -4.69242 15.26265 10919 ft 370 kts 73°
2026-04-13 06:18 -4.68517 15.28759 10924 ft 370 kts 73°
2026-04-13 06:18 -4.67798 15.31236 10924 ft 371 kts 73°
2026-04-13 06:19 -4.67077 15.33720 10922 ft 371 kts 73°
2026-04-13 06:19 -4.66356 15.36205 10917 ft 371 kts 73°
2026-04-13 06:19 -4.65634 15.38691 10919 ft 371 kts 73°
2026-04-13 06:19 -4.64913 15.41173 10919 ft 371 kts 73°
2026-04-13 06:20 -4.64200 15.43629 10923 ft 371 kts 73°
2026-04-13 06:20 -4.63477 15.46118 10920 ft 371 kts 73°
2026-04-13 06:20 -4.62777 15.48529 10898 ft 347 kts 73°
2026-04-13 06:20 -4.62127 15.50763 10837 ft 321 kts 73°
2026-04-13 06:21 -4.61513 15.52871 10447 ft 310 kts 73°
2026-04-13 06:21 -4.60869 15.54893 10104 ft 299 kts 64°
2026-04-13 06:21 -4.59692 15.56530 9758 ft 290 kts 43°
2026-04-13 06:21 -4.58043 15.57669 9369 ft 283 kts 24°
2026-04-13 06:22 -4.56230 15.58302 9011 ft 276 kts 18°
2026-04-13 06:22 -4.54392 15.58848 8637 ft 275 kts 17°
2026-04-13 06:22 -4.52545 15.59385 8288 ft 276 kts 18°
2026-04-13 06:22 -4.50698 15.59926 7913 ft 277 kts 18°
2026-04-13 06:23 -4.48847 15.60475 7561 ft 276 kts 18°
2026-04-13 06:23 -4.47024 15.61019 7200 ft 270 kts 18°
2026-04-13 06:23 -4.45248 15.61553 6849 ft 264 kts 18°
2026-04-13 06:23 -4.43507 15.62078 6525 ft 258 kts 18°
2026-04-13 06:24 -4.41819 15.62587 6318 ft 247 kts 18°
2026-04-13 06:24 -4.40199 15.63076 6166 ft 242 kts 18°
2026-04-13 06:24 -4.38608 15.63557 5937 ft 240 kts 18°
2026-04-13 06:24 -4.37016 15.64037 5726 ft 238 kts 18°
2026-04-13 06:25 -4.35394 15.64320 5480 ft 239 kts 356°
2026-04-13 06:25 -4.33788 15.63912 5271 ft 238 kts 341°
2026-04-13 06:25 -4.32258 15.63283 5030 ft 236 kts 339°
2026-04-13 06:25 -4.30770 15.62647 4754 ft 231 kts 337°
2026-04-13 06:26 -4.29552 15.61640 4548 ft 230 kts 302°
2026-04-13 06:26 -4.29219 15.60096 4198 ft 232 kts 261°
2026-04-13 06:26 -4.29755 15.58598 3901 ft 228 kts 244°
2026-04-13 06:26 -4.30462 15.57198 3607 ft 223 kts 240°
2026-04-13 06:27 -4.31256 15.55883 3318 ft 216 kts 237°
2026-04-13 06:27 -4.32054 15.54644 3057 ft 206 kts 237°
2026-04-13 06:27 -4.32801 15.53483 2785 ft 191 kts 237°
2026-04-13 06:27 -4.33496 15.52397 2564 ft 179 kts 237°
2026-04-13 06:28 -4.34146 15.51380 2361 ft 166 kts 237°
2026-04-13 06:28 -4.34743 15.50446 2165 ft 153 kts 237°
2026-04-13 06:28 -4.35301 15.49575 1956 ft 145 kts 237°
2026-04-13 06:28 -4.35844 15.48727 1775 ft 145 kts 234°
2026-04-13 06:29 -4.36406 15.47884 1530 ft 149 kts 239°
2026-04-13 06:29 -4.36914 15.46981 1365 ft 148 kts 236°
2026-04-13 06:29 -4.37483 15.46127 1163 ft 145 kts 236°
2026-04-13 06:29 -4.38010 15.45306 1027 ft 133 kts 237°
2026-04-13 06:30 -4.38450 15.44629 1030 ft 95 kts 237°
2026-04-13 06:30 -4.38727 15.44197 1030 ft 52 kts 237°
2026-04-13 06:30 -4.38845 15.44098 1028 ft 8 kts 161°
2026-04-13 06:30 -4.38889 15.44126 1027 ft 6 kts 151°
2026-04-13 06:31 -4.38927 15.44148 1029 ft 6 kts 150°
2026-04-13 06:31 -4.38958 15.44176 1030 ft 6 kts 114°
2026-04-13 06:31 -4.38943 15.44215 1030 ft 6 kts 51°
2026-04-13 06:31 -4.38917 15.44249 1030 ft 6 kts 54°
2026-04-13 06:32 -4.38897 15.44287 1031 ft 6 kts 63°
2026-04-13 06:32 -4.38871 15.44329 1032 ft 9 kts 56°
2026-04-13 06:32 -4.38835 15.44384 1033 ft 9 kts 56°
2026-04-13 06:32 -4.38800 15.44436 1032 ft 9 kts 56°
2026-04-13 06:33 -4.38765 15.44488 1032 ft 9 kts 56°
2026-04-13 06:33 -4.38732 15.44538 1032 ft 9 kts 57°
2026-04-13 06:33 -4.38714 15.44579 1032 ft 6 kts 73°
2026-04-13 06:33 -4.38727 15.44613 1032 ft 6 kts 143°
2026-04-13 06:34 -4.38740 15.44615 1031 ft 0 kts 180°
2026-04-13 06:35 -4.38741 15.44616 1031 ft 0 kts 165°
2026-04-13 06:35 -4.38742 15.44617 1031 ft 0 kts 150°
2026-04-13 06:35 -4.38751 15.44626 1031 ft 3 kts 141°
2026-04-13 06:35 -4.38773 15.44628 1031 ft 4 kts 186°
2026-04-13 06:36 -4.38797 15.44623 1032 ft 3 kts 193°
2026-04-13 06:36 -4.38814 15.44619 1032 ft 2 kts 194°
2026-04-13 06:36 -4.38820 15.44618 1032 ft 0 kts 194°
2026-04-13 06:36 -4.38821 15.44617 1032 ft 0 kts 194°